Bradford, PA

11:45 PM EDT on May 26, 2018 (GMT -0400)
Bradford Regional

Weather History for KBFD - August, 2012

Change the Weather History Date:

Sunday, August 5, 2012

  Actual Average Record
Temperature  
Mean Temperature 72 °F 65 °F  
Max Temperature 77 °F 77 °F 86 °F (2001)
Min Temperature 64 °F 53 °F 32 °F (1972)
Degree Days  
Heating Degree Days 0 0  
Month to date heating degree days 0  
Since 1 June heating degree days 209  
Since 1 July heating degree days 64  
Cooling Degree Days 6 2  
Month to date cooling degree days 10  
Year to date cooling degree days 134  
Since 1 June cooling degree days 124  
Growing Degree Days 22 (Base 50)    
Moisture  
Dew Point 66 °F    
Average Humidity 79    
Maximum Humidity 90    
Minimum Humidity 71    
Precipitation  
Precipitation 0.23 in 0.13 in 1.64 in (1983)
Month to date precipitation 0.68  
Year to date precipitation 26.52  
Sea Level Pressure  
Sea Level Pressure 30.03 in    
Wind  
Wind Speed 8 mph (SSW)    
Max Wind Speed 12 mph    
Max Gust Speed 22 mph    
Visibility 8 miles    
Events Rain    
T = Trace of Precipitation, MM = Missing Value Source: NWS Daily Summary

Daily Weather History Graph

Daily Weather History Graph

Search for Another Location

Airport or City:

Astronomy

Aug. 05, 2012 Rise Set
Actual Time 6:13 AM EDT 8:27 PM EDT
Civil Twilight 5:42 AM EDT 8:58 PM EDT
Nautical Twilight 5:03 AM EDT 9:36 PM EDT
Astronomical Twilight 4:21 AM EDT 10:17 PM EDT
Moon 9:59 PM EDT (8/5) 10:04 AM EDT (8/5)
Length of Visible Light 15h 16m
Length of Day
14h 14m
Waning Gibbous, 86% of the Moon is Illuminated
Aug 5
Waning Gibbous
Aug 9
Last Quarter
Aug 17
New
Aug 24
First Quarter
Aug 31
Full

Hourly Weather History & Observations

Time (EDT) Temp. Dew Point Humidity Pressure Visibility Wind Dir Wind Speed Gust Speed Precip Events Conditions
12:53 AM 73.9 °F 66.9 °F 79% 30.05 in 10.0 mi SSE 9.2 mph - N/A   Clear
1:53 AM 73.9 °F 66.0 °F 76% 30.03 in 10.0 mi SSE 8.1 mph - N/A   Clear
2:53 AM 73.9 °F 66.0 °F 76% 30.02 in 10.0 mi SSE 9.2 mph - N/A   Mostly Cloudy
3:53 AM 73.9 °F 64.9 °F 73% 29.99 in 10.0 mi South 8.1 mph - N/A   Mostly Cloudy
4:24 AM 75.0 °F 64.9 °F 71% 30.06 in 10.0 mi South 8.1 mph - N/A   Mostly Cloudy
4:53 AM 75.0 °F 64.9 °F 71% 30.01 in 10.0 mi SW 4.6 mph - N/A   Overcast
5:50 AM 73.4 °F 64.4 °F 73% 30.07 in 10.0 mi SSW 6.9 mph - N/A   Mostly Cloudy
5:53 AM 73.9 °F 64.9 °F 73% 30.01 in 10.0 mi South 5.8 mph - N/A   Mostly Cloudy
6:53 AM 73.9 °F 64.9 °F 73% 30.02 in 10.0 mi South 5.8 mph - N/A   Mostly Cloudy
7:33 AM 72.0 °F 66.0 °F 81% 30.08 in 1.8 mi South 5.8 mph - 0.06 in Rain Heavy Rain
7:41 AM 72.0 °F 66.0 °F 81% 30.08 in 3.0 mi Variable 5.8 mph - 0.06 in Rain Light Rain
7:53 AM 72.0 °F 66.0 °F 81% 30.03 in 8.0 mi Variable 5.8 mph - 0.06 in   Overcast
8:53 AM 72.0 °F 66.9 °F 84% 30.03 in 7.0 mi South 8.1 mph - N/A   Overcast
9:02 AM 72.0 °F 66.9 °F 84% 30.08 in 7.0 mi SSW 5.8 mph - N/A   Overcast
9:53 AM 73.9 °F 66.9 °F 79% 30.01 in 8.0 mi South 8.1 mph - N/A   Overcast
10:16 AM 73.0 °F 68.0 °F 84% 30.07 in 7.0 mi SSW 8.1 mph - N/A   Overcast
10:53 AM 73.9 °F 68.0 °F 82% 30.02 in 7.0 mi SSW 9.2 mph - N/A   Overcast
11:53 AM 75.2 °F 68.0 °F 78% 30.06 in 6.0 mi SSW 9.2 mph 17.3 mph N/A   Haze
12:21 PM 75.9 °F 68.0 °F 76% 30.05 in 6.0 mi SSW 9.2 mph - 0.00 in Rain Light Rain
12:53 PM 75.0 °F 69.1 °F 82% 30.01 in 1.2 mi South 9.2 mph 17.3 mph 0.11 in Rain Heavy Rain
1:04 PM 73.0 °F 69.1 °F 87% 30.06 in 3.0 mi SSW 10.4 mph 21.9 mph 0.01 in Rain Light Rain
1:53 PM 73.0 °F 68.0 °F 84% 29.99 in 3.0 mi SW 10.4 mph 17.3 mph 0.04 in Rain Rain
2:02 PM 73.0 °F 68.0 °F 84% 30.04 in 6.0 mi SW 9.2 mph 17.3 mph 0.00 in Rain Light Rain
2:07 PM 72.0 °F 68.0 °F 87% 30.04 in 6.0 mi SW 10.4 mph 19.6 mph 0.00 in Rain Light Rain
2:17 PM 72.0 °F 66.9 °F 84% 30.04 in 5.0 mi SSW 6.9 mph - 0.01 in Rain Light Rain
2:35 PM 72.0 °F 66.9 °F 84% 30.04 in 10.0 mi Variable 6.9 mph - 0.01 in Rain Light Rain
2:53 PM 72.0 °F 66.9 °F 84% 29.99 in 10.0 mi Variable 6.9 mph 18.4 mph 0.01 in Rain Light Rain
3:01 PM 72.0 °F 66.9 °F 84% 30.04 in 10.0 mi West 5.8 mph - 0.00 in   Overcast
3:22 PM 73.0 °F 68.0 °F 84% 30.03 in 10.0 mi Variable 6.9 mph 17.3 mph 0.00 in   Overcast
3:44 PM 73.0 °F 68.0 °F 84% 30.02 in 10.0 mi SW 8.1 mph - 0.00 in   Overcast
3:53 PM 73.0 °F 68.0 °F 84% 29.97 in 10.0 mi Variable 6.9 mph - 0.00 in   Overcast
4:53 PM 73.9 °F 68.0 °F 82% 29.96 in 10.0 mi WSW 8.1 mph - 0.01 in   Overcast
5:09 PM 75.0 °F 68.0 °F 79% 30.01 in 10.0 mi WSW 9.2 mph - N/A   Mostly Cloudy
5:50 PM 75.2 °F 66.2 °F 73% 30.01 in 10.0 mi SW 11.5 mph 18.4 mph N/A   Mostly Cloudy
5:53 PM 75.9 °F 66.9 °F 74% 29.96 in 10.0 mi SW 8.1 mph 17.3 mph N/A   Mostly Cloudy
6:40 PM 75.0 °F 66.9 °F 76% 30.02 in 10.0 mi SSW 5.8 mph - N/A   Overcast
6:53 PM 75.0 °F 66.9 °F 76% 29.97 in 10.0 mi Variable 6.9 mph - N/A   Mostly Cloudy
7:13 PM 75.0 °F 66.9 °F 76% 30.03 in 10.0 mi West 4.6 mph - N/A   Mostly Cloudy
7:32 PM 75.0 °F 66.9 °F 76% 30.04 in 10.0 mi Variable 6.9 mph - N/A   Mostly Cloudy
7:53 PM 75.0 °F 66.0 °F 73% 29.99 in 10.0 mi West 4.6 mph - N/A   Mostly Cloudy
8:53 PM 73.0 °F 63.0 °F 71% 30.01 in 10.0 mi WNW 8.1 mph - N/A   Clear
9:53 PM 71.1 °F 63.0 °F 75% 30.04 in 10.0 mi West 5.8 mph - N/A   Clear
10:53 PM 68.0 °F 63.0 °F 84% 30.06 in 10.0 mi West 3.5 mph - N/A   Clear
11:53 PM 64.0 °F 61.0 °F 90% 30.06 in 3.0 mi Calm Calm - N/A   Clear